| time (UTC) | temp C | wind direction | speed KPH | gust KPH | rain 1hr cm | rain 24hr cm | rain mn cm | humidity % | barometer mb |
| 20260507052504 | 17 | 213 | 3.2 | 4.8 | 0.00 | 0.00 | 0.00 | 63 | 1017.9 |
| 20260507052005 | 17 | 183 | 3.2 | 4.8 | 0.00 | 0.00 | 0.00 | 62 | 1017.9 |
| 20260507051504 | 17 | 216 | 1.6 | 4.8 | 0.00 | 0.00 | 0.00 | 62 | 1017.9 |
| 20260507050505 | 17 | 221 | 3.2 | 9.7 | 0.00 | 0.00 | 0.00 | 62 | 1017.9 |
| 20260507050004 | 17 | 224 | 3.2 | 9.7 | 0.00 | 0.00 | 0.00 | 62 | 1017.9 |
| 20260507045504 | 17 | 202 | 3.2 | 9.7 | 0.00 | 0.00 | 0.00 | 61 | 1017.9 |
| 20260507045004 | 17 | 201 | 3.2 | 9.7 | 0.00 | 0.00 | 0.00 | 61 | 1017.9 |
| 20260507044005 | 18 | 212 | 3.2 | 9.7 | 0.00 | 0.00 | 0.00 | 60 | 1017.6 |
| 20260507043504 | 18 | 241 | 4.8 | 11.3 | 0.00 | 0.00 | 0.00 | 60 | 1017.6 |
| 20260507043004 | 18 | 209 | 3.2 | 11.3 | 0.00 | 0.00 | 0.00 | 60 | 1017.6 |
| 20260507042504 | 18 | 236 | 3.2 | 11.3 | 0.00 | 0.00 | 0.00 | 59 | 1017.5 |
| 20260507042004 | 18 | 224 | 4.8 | 11.3 | 0.00 | 0.00 | 0.00 | 59 | 1017.6 |
| 20260507041503 | 18 | 215 | 4.8 | 14.5 | 0.00 | 0.00 | 0.00 | 59 | 1017.6 |
| 20260507041005 | 18 | 226 | 6.4 | 14.5 | 0.00 | 0.00 | 0.00 | 58 | 1017.3 |
| 20260507040505 | 18 | 233 | 3.2 | 12.9 | 0.00 | 0.00 | 0.00 | 58 | 1017.3 |
| 20260507040004 | 18 | 271 | 4.8 | 11.3 | 0.00 | 0.00 | 0.00 | 58 | 1017.3 |
| 20260507035504 | 18 | 251 | 4.8 | 12.9 | 0.00 | 0.00 | 0.00 | 57 | 1017.2 |
| 20260507035004 | 19 | 219 | 4.8 | 12.9 | 0.00 | 0.00 | 0.00 | 57 | 1017.3 |
| 20260507034504 | 19 | 265 | 4.8 | 12.9 | 0.00 | 0.00 | 0.00 | 56 | 1017.3 |
| 20260507034004 | 19 | 225 | 6.4 | 12.9 | 0.00 | 0.00 | 0.00 | 56 | 1016.9 |
| 20260507033504 | 20 | 227 | 3.2 | 16.1 | 0.00 | 0.00 | 0.00 | 55 | 1016.9 |
| 20260507033004 | 20 | 235 | 3.2 | 19.3 | 0.00 | 0.00 | 0.00 | 54 | 1016.9 |
| 20260507032004 | 20 | 255 | 8.0 | 16.1 | 0.00 | 0.00 | 0.00 | 54 | 1016.9 |
| 20260507031505 | 20 | 268 | 6.4 | 11.3 | 0.00 | 0.00 | 0.00 | 52 | 1016.7 |
| 20260507031004 | 20 | 246 | 4.8 | 14.5 | 0.00 | 0.00 | 0.00 | 52 | 1016.6 |
| 20260507030504 | 20 | 235 | 4.8 | 14.5 | 0.00 | 0.00 | 0.00 | 51 | 1016.6 |
| 20260507030004 | 21 | 267 | 4.8 | 19.3 | 0.00 | 0.00 | 0.00 | 50 | 1016.6 |
| 20260507025004 | 21 | 255 | 4.8 | 16.1 | 0.00 | 0.00 | 0.00 | 49 | 1016.2 |
| 20260507024004 | 21 | 276 | 8.0 | 16.1 | 0.00 | 0.00 | 0.00 | 48 | 1016.2 |
| 20260507023503 | 21 | 258 | 6.4 | 16.1 | 0.00 | 0.00 | 0.00 | 48 | 1016.2 |
| 20260507023004 | 21 | 265 | 9.7 | 19.3 | 0.00 | 0.00 | 0.00 | 47 | 1016.3 |
| 20260507022504 | 21 | 243 | 6.4 | 19.3 | 0.00 | 0.00 | 0.00 | 47 | 1016.2 |
| 20260507022004 | 22 | 268 | 8.0 | 19.3 | 0.00 | 0.00 | 0.00 | 47 | 1016.2 |
| 20260507021505 | 22 | 273 | 8.0 | 19.3 | 0.00 | 0.00 | 0.00 | 46 | 1015.9 |
| 20260507021004 | 22 | 271 | 9.7 | 24.1 | 0.00 | 0.00 | 0.00 | 44 | 1015.9 |
| 20260507020505 | 22 | 256 | 8.0 | 24.1 | 0.00 | 0.00 | 0.00 | 44 | 1015.9 |
| 20260507020005 | 23 | 274 | 8.0 | 24.1 | 0.00 | 0.00 | 0.00 | 43 | 1015.9 |
| 20260507015504 | 23 | 260 | 6.4 | 22.5 | 0.00 | 0.00 | 0.00 | 42 | 1015.9 |
| 20260507015004 | 23 | 265 | 8.0 | 22.5 | 0.00 | 0.00 | 0.00 | 42 | 1015.9 |
| 20260507014504 | 23 | 256 | 8.0 | 19.3 | 0.00 | 0.00 | 0.00 | 41 | 1015.9 |
| 20260507014005 | 23 | 274 | 8.0 | 19.3 | 0.00 | 0.00 | 0.00 | 41 | 1015.9 |
| 20260507013505 | 23 | 248 | 9.7 | 20.9 | 0.00 | 0.00 | 0.00 | 41 | 1015.9 |
| 20260507013005 | 23 | 279 | 12.9 | 20.9 | 0.00 | 0.00 | 0.00 | 41 | 1015.6 |
| 20260507012504 | 24 | 273 | 9.7 | 22.5 | 0.00 | 0.00 | 0.00 | 40 | 1015.9 |
| 20260507012004 | 25 | 263 | 8.0 | 22.5 | 0.00 | 0.00 | 0.00 | 40 | 1015.6 |
| 20260507011504 | 25 | 258 | 8.0 | 24.1 | 0.00 | 0.00 | 0.00 | 40 | 1015.6 |
| 20260507010505 | 25 | 246 | 8.0 | 24.1 | 0.00 | 0.00 | 0.00 | 40 | 1015.5 |
| 20260507010005 | 25 | 264 | 11.3 | 24.1 | 0.00 | 0.00 | 0.00 | 40 | 1015.6 |
| 20260507005505 | 24 | 268 | 8.0 | 24.1 | 0.00 | 0.00 | 0.00 | 40 | 1015.5 |
| 20260507005005 | 25 | 270 | 14.5 | 27.4 | 0.00 | 0.00 | 0.00 | 39 | 1015.6 |
| 20260507004505 | 25 | 241 | 11.3 | 27.4 | 0.00 | 0.00 | 0.00 | 39 | 1015.5 |
| 20260507004005 | 25 | 284 | 11.3 | 24.1 | 0.00 | 0.00 | 0.00 | 38 | 1015.3 |
| 20260507003504 | 25 | 246 | 9.7 | 24.1 | 0.00 | 0.00 | 0.00 | 38 | 1015.5 |
| 20260507001504 | 26 | 299 | 9.7 | 22.5 | 0.00 | 0.00 | 0.00 | 34 | 1015.2 |
| 20260507000505 | 25 | 272 | 9.7 | 22.5 | 0.00 | 0.00 | 0.00 | 34 | 1015.2 |
| 20260507000004 | 25 | 257 | 9.7 | 20.9 | 0.00 | 0.00 | 0.00 | 34 | 1015.2 |
| 20260506235504 | 26 | 267 | 11.3 | 19.3 | 0.00 | 0.00 | 0.00 | 34 | 1015.2 |
| 20260506235004 | 26 | 258 | 8.0 | 19.3 | 0.00 | 0.00 | 0.00 | 33 | 1015.2 |
| 20260506234504 | 26 | 259 | 9.7 | 19.3 | 0.00 | 0.00 | 0.00 | 33 | 1015.2 |
| 20260506234005 | 26 | 269 | 9.7 | 19.3 | 0.00 | 0.00 | 0.00 | 34 | 1015.2 |
| 20260506233504 | 26 | 279 | 11.3 | 19.3 | 0.00 | 0.00 | 0.00 | 34 | 1015.2 |
| 20260506232504 | 26 | 282 | 8.0 | 24.1 | 0.00 | 0.00 | 0.00 | 34 | 1015.2 |
| 20260506231504 | 26 | 290 | 8.0 | 16.1 | 0.00 | 0.00 | 0.00 | 33 | 1015.2 |
| 20260506231004 | 26 | 220 | 6.4 | 16.1 | 0.00 | 0.00 | 0.00 | 36 | 1015.2 |
| 20260506230004 | 26 | 260 | 8.0 | 20.9 | 0.00 | 0.00 | 0.00 | 35 | 1015.6 |
| 20260506225505 | 26 | 306 | 8.0 | 20.9 | 0.00 | 0.00 | 0.00 | 34 | 1015.6 |
| 20260506225005 | 26 | 244 | 8.0 | 20.9 | 0.00 | 0.00 | 0.00 | 33 | 1015.6 |
| 20260506224506 | 26 | 254 | 6.4 | 14.5 | 0.00 | 0.00 | 0.00 | 34 | 1015.6 |
| 20260506224004 | 26 | 265 | 8.0 | 14.5 | 0.00 | 0.00 | 0.00 | 34 | 1015.6 |
| 20260506223504 | 26 | 257 | 6.4 | 19.3 | 0.00 | 0.00 | 0.00 | 34 | 1015.9 |
| 20260506223004 | 26 | 202 | 9.7 | 20.9 | 0.00 | 0.00 | 0.00 | 36 | 1015.9 |
| 20260506222504 | 25 | 187 | 8.0 | 20.9 | 0.00 | 0.00 | 0.00 | 37 | 1015.9 |
| 20260506222005 | 26 | 272 | 9.7 | 16.1 | 0.00 | 0.00 | 0.00 | 33 | 1015.9 |
| 20260506221504 | 26 | 242 | 8.0 | 16.1 | 0.00 | 0.00 | 0.00 | 34 | 1015.9 |
| 20260506221004 | 26 | 220 | 9.7 | 16.1 | 0.00 | 0.00 | 0.00 | 35 | 1015.9 |
| 20260506220004 | 25 | 224 | 9.7 | 19.3 | 0.00 | 0.00 | 0.00 | 36 | 1016.2 |
| 20260506215505 | 25 | 190 | 4.8 | 14.5 | 0.00 | 0.00 | 0.00 | 35 | 1016.2 |
| 20260506215004 | 25 | 257 | 8.0 | 14.5 | 0.00 | 0.00 | 0.00 | 35 | 1016.2 |
| 20260506214005 | 25 | 198 | 8.0 | 14.5 | 0.00 | 0.00 | 0.00 | 37 | 1016.2 |
| 20260506213504 | 24 | 253 | 6.4 | 19.3 | 0.00 | 0.00 | 0.00 | 37 | 1016.6 |
| 20260506213005 | 24 | 258 | 8.0 | 19.3 | 0.00 | 0.00 | 0.00 | 36 | 1016.6 |
| 20260506212505 | 23 | 296 | 11.3 | 19.3 | 0.00 | 0.00 | 0.00 | 35 | 1016.6 |
| 20260506212005 | 24 | 264 | 9.7 | 19.3 | 0.00 | 0.00 | 0.00 | 34 | 1016.6 |
| 20260506211505 | 24 | 219 | 8.0 | 12.9 | 0.00 | 0.00 | 0.00 | 37 | 1016.9 |
| 20260506211004 | 23 | 253 | 8.0 | 16.1 | 0.00 | 0.00 | 0.00 | 35 | 1016.9 |
| 20260506210505 | 23 | 241 | 4.8 | 16.1 | 0.00 | 0.00 | 0.00 | 37 | 1016.9 |
| 20260506205503 | 23 | 264 | 6.4 | 19.3 | 0.00 | 0.00 | 0.00 | 37 | 1017.2 |
| 20260506205004 | 23 | 250 | 8.0 | 19.3 | 0.00 | 0.00 | 0.00 | 37 | 1017.2 |
| 20260506204504 | 23 | 294 | 9.7 | 19.3 | 0.00 | 0.00 | 0.00 | 36 | 1017.2 |
| 20260506203505 | 23 | 218 | 8.0 | 16.1 | 0.00 | 0.00 | 0.00 | 39 | 1017.2 |
| 20260506203004 | 23 | 229 | 6.4 | 16.1 | 0.00 | 0.00 | 0.00 | 39 | 1017.2 |
| 20260506202505 | 23 | 282 | 8.0 | 16.1 | 0.00 | 0.00 | 0.00 | 38 | 1017.3 |
| 20260506202005 | 23 | 245 | 3.2 | 12.9 | 0.00 | 0.00 | 0.00 | 39 | 1017.3 |
| 20260506201504 | 22 | 223 | 8.0 | 14.5 | 0.00 | 0.00 | 0.00 | 42 | 1017.6 |
| 20260506201005 | 22 | 296 | 8.0 | 14.5 | 0.00 | 0.00 | 0.00 | 41 | 1017.6 |
| 20260506200504 | 22 | 289 | 9.7 | 12.9 | 0.00 | 0.00 | 0.00 | 41 | 1017.6 |
| 20260506200005 | 22 | 349 | 8.0 | 12.9 | 0.00 | 0.00 | 0.00 | 41 | 1017.6 |
| 20260506195503 | 22 | 270 | 3.2 | 12.9 | 0.00 | 0.00 | 0.00 | 41 | 1017.6 |
| 20260506195004 | 22 | 319 | 4.8 | 12.9 | 0.00 | 0.00 | 0.00 | 40 | 1017.9 |
| 20260506194004 | 23 | 217 | 6.4 | 11.3 | 0.00 | 0.00 | 0.00 | 41 | 1017.9 |
| 20260506193504 | 22 | 171 | 6.4 | 14.5 | 0.00 | 0.00 | 0.00 | 42 | 1017.9 |
| 20260506193004 | 22 | 211 | 4.8 | 14.5 | 0.00 | 0.00 | 0.00 | 41 | 1018.2 |
| 20260506192504 | 22 | 227 | 6.4 | 14.5 | 0.00 | 0.00 | 0.00 | 42 | 1018.2 |
| 20260506192004 | 22 | 219 | 3.2 | 11.3 | 0.00 | 0.00 | 0.00 | 43 | 1018.3 |
| 20260506191504 | 21 | 330 | 4.8 | 11.3 | 0.00 | 0.00 | 0.00 | 43 | 1018.3 |
| 20260506191004 | 21 | 36 | 1.6 | 9.7 | 0.00 | 0.00 | 0.00 | 43 | 1018.3 |
| 20260506190004 | 21 | 134 | 3.2 | 11.3 | 0.00 | 0.00 | 0.00 | 44 | 1018.6 |
| 20260506185506 | 21 | 206 | 3.2 | 11.3 | 0.00 | 0.00 | 0.00 | 44 | 1018.6 |
| 20260506185004 | 21 | 192 | 4.8 | 11.3 | 0.00 | 0.00 | 0.00 | 45 | 1018.6 |
| 20260506184004 | 20 | 232 | 3.2 | 11.3 | 0.00 | 0.00 | 0.00 | 45 | 1018.9 |
| 20260506183005 | 21 | 126 | 4.8 | 11.3 | 0.00 | 0.00 | 0.00 | 44 | 1018.9 |
| 20260506182004 | 20 | 141 | 4.8 | 11.3 | 0.00 | 0.00 | 0.00 | 49 | 1018.9 |
| 20260506180504 | 20 | 316 | 4.8 | 11.3 | 0.00 | 0.00 | 0.00 | 46 | 1018.9 |
| 20260506180007 | 20 | 152 | 4.8 | 11.3 | 0.00 | 0.00 | 0.00 | 48 | 1019.0 |
| 20260506175004 | 19 | 226 | 4.8 | 9.7 | 0.00 | 0.00 | 0.00 | 48 | 1018.9 |
| 20260506174504 | 19 | 196 | 4.8 | 9.7 | 0.00 | 0.00 | 0.00 | 50 | 1019.0 |
| 20260506174004 | 18 | 246 | 4.8 | 8.0 | 0.00 | 0.00 | 0.00 | 48 | 1018.9 |
| 20260506173003 | 18 | 253 | 3.2 | 8.0 | 0.00 | 0.00 | 0.00 | 50 | 1019.0 |
| 20260506172504 | 18 | 247 | 3.2 | 8.0 | 0.00 | 0.00 | 0.00 | 51 | 1019.0 |
| 20260506172004 | 18 | 64 | 3.2 | 9.7 | 0.00 | 0.00 | 0.00 | 50 | 1018.9 |
| 20260506171504 | 18 | 347 | 4.8 | 9.7 | 0.00 | 0.00 | 0.00 | 50 | 1019.0 |
| 20260506171004 | 18 | 310 | 4.8 | 9.7 | 0.00 | 0.00 | 0.00 | 51 | 1019.0 |
| 20260506170004 | 17 | 157 | 3.2 | 8.0 | 0.00 | 0.00 | 0.00 | 53 | 1019.0 |
| 20260506165003 | 17 | 204 | 4.8 | 9.7 | 0.00 | 0.00 | 0.00 | 58 | 1019.3 |
| 20260506164004 | 16 | 290 | 4.8 | 9.7 | 0.00 | 0.00 | 0.00 | 56 | 1019.3 |
| 20260506163004 | 16 | 343 | 3.2 | 8.0 | 0.00 | 0.00 | 0.00 | 57 | 1019.3 |
| 20260506162503 | 16 | 54 | 1.6 | 8.0 | 0.00 | 0.00 | 0.00 | 59 | 1019.3 |
| 20260506162004 | 16 | 26 | 3.2 | 8.0 | 0.00 | 0.00 | 0.00 | 58 | 1019.3 |
| 20260506161504 | 16 | 316 | 3.2 | 9.7 | 0.00 | 0.00 | 0.00 | 60 | 1019.3 |
| 20260506161003 | 16 | 282 | 4.8 | 9.7 | 0.00 | 0.00 | 0.00 | 59 | 1019.1 |
| 20260506160004 | 16 | 285 | 1.6 | 4.8 | 0.00 | 0.00 | 0.00 | 62 | 1019.0 |
| 20260506155505 | 15 | 131 | 3.2 | 4.8 | 0.00 | 0.00 | 0.00 | 63 | 1019.0 |
| 20260506155005 | 15 | 233 | 3.2 | 9.7 | 0.00 | 0.00 | 0.00 | 63 | 1018.9 |
| 20260506153504 | 15 | 109 | 3.2 | 4.8 | 0.00 | 0.00 | 0.00 | 65 | 1018.9 |
| 20260506153004 | 14 | 330 | 3.2 | 4.8 | 0.00 | 0.00 | 0.00 | 66 | 1019.3 |
| 20260506152503 | 14 | 85 | 4.8 | 8.0 | 0.00 | 0.00 | 0.00 | 67 | 1019.0 |
| 20260506152004 | 14 | 59 | 1.6 | 8.0 | 0.00 | 0.00 | 0.00 | 68 | 1019.0 |
| 20260506151004 | 13 | 20 | 1.6 | 4.8 | 0.00 | 0.00 | 0.00 | 70 | 1019.0 |
| 20260506150504 | 13 | 53 | 3.2 | 4.8 | 0.00 | 0.00 | 0.00 | 70 | 1019.3 |
| 20260506150004 | 13 | 59 | 3.2 | 4.8 | 0.00 | 0.00 | 0.00 | 71 | 1019.3 |
| 20260506145503 | 13 | 40 | 1.6 | 4.8 | 0.00 | 0.00 | 0.00 | 72 | 1019.3 |
| 20260506145005 | 13 | 13 | 3.2 | 8.0 | 0.00 | 0.00 | 0.00 | 72 | 1019.3 |
| 20260506144504 | 13 | 40 | 3.2 | 9.7 | 0.00 | 0.00 | 0.00 | 72 | 1019.3 |
| 20260506144004 | 12 | 39 | 4.8 | 9.7 | 0.00 | 0.00 | 0.00 | 72 | 1019.2 |
| 20260506143505 | 12 | 77 | 4.8 | 9.7 | 0.00 | 0.00 | 0.00 | 73 | 1019.3 |
| 20260506143005 | 12 | 52 | 1.6 | 8.0 | 0.00 | 0.00 | 0.00 | 73 | 1019.3 |
| 20260506142504 | 12 | 39 | 4.8 | 8.0 | 0.00 | 0.00 | 0.00 | 74 | 1019.0 |
| 20260506142004 | 12 | 63 | 4.8 | 8.0 | 0.00 | 0.00 | 0.00 | 75 | 1019.0 |
| 20260506141504 | 11 | 54 | 3.2 | 4.8 | 0.00 | 0.00 | 0.00 | 77 | 1019.0 |
| 20260506141004 | 11 | 40 | 3.2 | 4.8 | 0.00 | 0.00 | 0.00 | 78 | 1019.0 |
| 20260506140503 | 11 | 25 | 3.2 | 4.8 | 0.00 | 0.00 | 0.00 | 80 | 1018.9 |
| 20260506140005 | 11 | 60 | 1.6 | 3.2 | 0.00 | 0.00 | 0.00 | 81 | 1019.0 |
| 20260506135504 | 11 | 72 | 1.6 | 3.2 | 0.00 | 0.00 | 0.00 | 82 | 1019.0 |
| 20260506135004 | 11 | 50 | 0.0 | 3.2 | 0.00 | 0.00 | 0.00 | 82 | 1018.9 |
| 20260506134503 | 11 | 70 | 1.6 | 3.2 | 0.00 | 0.00 | 0.00 | 83 | 1018.9 |
| 20260506134004 | 10 | 26 | 1.6 | 3.2 | 0.00 | 0.00 | 0.00 | 83 | 1018.9 |
| 20260506133504 | 10 | 36 | 1.6 | 3.2 | 0.00 | 0.00 | 0.00 | 84 | 1018.9 |
| 20260506133005 | 10 | 68 | 1.6 | 3.2 | 0.00 | 0.00 | 0.00 | 84 | 1018.6 |
| 20260506132504 | 10 | 70 | 1.6 | 3.2 | 0.00 | 0.00 | 0.00 | 84 | 1018.6 |
| 20260506132005 | 10 | 40 | 1.6 | 3.2 | 0.00 | 0.00 | 0.00 | 84 | 1018.6 |
| 20260506131505 | 10 | 19 | 1.6 | 3.2 | 0.00 | 0.00 | 0.00 | 84 | 1018.6 |
| 20260506131003 | 10 | 13 | 1.6 | 4.8 | 0.00 | 0.00 | 0.00 | 84 | 1018.6 |
| 20260506130504 | 10 | 19 | 3.2 | 4.8 | 0.00 | 0.00 | 0.00 | 84 | 1018.3 |
| 20260506130004 | 9 | 358 | 1.6 | 3.2 | 0.00 | 0.00 | 0.00 | 84 | 1018.3 |
| 20260506125504 | 10 | 343 | 1.6 | 3.2 | 0.00 | 0.00 | 0.00 | 84 | 1018.3 |
| 20260506124504 | 10 | 3 | 1.6 | 3.2 | 0.00 | 0.00 | 0.00 | 84 | 1018.3 |
| 20260506124004 | 10 | 5 | 3.2 | 3.2 | 0.00 | 0.00 | 0.00 | 84 | 1018.3 |
| 20260506123504 | 10 | 16 | 1.6 | 3.2 | 0.00 | 0.00 | 0.00 | 84 | 1018.3 |
| 20260506123004 | 10 | 4 | 3.2 | 3.2 | 0.00 | 0.00 | 0.00 | 84 | 1018.3 |
| 20260506122004 | 10 | 27 | 1.6 | 3.2 | 0.00 | 0.00 | 0.00 | 84 | 1018.3 |
| 20260506121504 | 10 | 40 | 1.6 | 3.2 | 0.00 | 0.00 | 0.00 | 83 | 1018.2 |
| 20260506121004 | 10 | 43 | 1.6 | 3.2 | 0.00 | 0.03 | 0.00 | 83 | 1018.3 |
| 20260506120504 | 10 | 43 | 1.6 | 3.2 | 0.00 | 0.05 | 0.00 | 83 | 1018.3 |
| 20260506120005 | 10 | 29 | 1.6 | 3.2 | 0.00 | 0.05 | 0.00 | 82 | 1018.3 |
| 20260506115505 | 10 | 34 | 1.6 | 3.2 | 0.00 | 0.08 | 0.00 | 82 | 1018.3 |
| 20260506115004 | 10 | 61 | 1.6 | 1.6 | 0.00 | 0.08 | 0.00 | 82 | 1018.2 |
| 20260506114504 | 10 | 19 | 1.6 | 3.2 | 0.00 | 0.10 | 0.00 | 82 | 1018.2 |
| 20260506114005 | 10 | 12 | 1.6 | 3.2 | 0.00 | 0.15 | 0.00 | 82 | 1018.3 |
| 20260506113505 | 10 | 39 | 1.6 | 1.6 | 0.00 | 0.18 | 0.00 | 82 | 1018.3 |
| 20260506113004 | 10 | 26 | 1.6 | 1.6 | 0.00 | 0.20 | 0.00 | 82 | 1018.3 |
| 20260506112504 | 10 | 68 | 0.0 | 0.0 | 0.00 | 0.20 | 0.00 | 81 | 1017.9 |
| 20260506112004 | 10 | 40 | 0.0 | 0.0 | 0.00 | 0.20 | 0.00 | 81 | 1017.9 |
| 20260506111504 | 10 | 40 | 0.0 | 1.6 | 0.00 | 0.20 | 0.00 | 81 | 1017.9 |
| 20260506110504 | 10 | 20 | 0.0 | 3.2 | 0.00 | 0.20 | 0.00 | 81 | 1018.0 |
| 20260506105504 | 10 | 37 | 1.6 | 1.6 | 0.00 | 0.20 | 0.00 | 81 | 1017.9 |
| 20260506105005 | 10 | 20 | 1.6 | 1.6 | 0.00 | 0.20 | 0.00 | 80 | 1017.9 |
| 20260506104004 | 10 | 39 | 1.6 | 3.2 | 0.00 | 0.23 | 0.00 | 80 | 1017.9 |
| 20260506103504 | 10 | 134 | 1.6 | 3.2 | 0.00 | 0.25 | 0.00 | 79 | 1017.9 |
| 20260506103004 | 10 | 104 | 1.6 | 3.2 | 0.00 | 0.25 | 0.00 | 79 | 1017.9 |
| 20260506102504 | 11 | 112 | 1.6 | 3.2 | 0.00 | 0.25 | 0.00 | 79 | 1017.9 |
| 20260506101505 | 11 | 90 | 1.6 | 3.2 | 0.00 | 0.25 | 0.00 | 79 | 1017.9 |
| 20260506101004 | 11 | 54 | 3.2 | 3.2 | 0.00 | 0.25 | 0.00 | 79 | 1017.9 |
| 20260506100504 | 11 | 7 | 1.6 | 3.2 | 0.00 | 0.25 | 0.00 | 79 | 1017.9 |
| 20260506100005 | 11 | 311 | 3.2 | 4.8 | 0.00 | 0.25 | 0.00 | 79 | 1017.9 |
| 20260506095504 | 11 | 311 | 3.2 | 4.8 | 0.00 | 0.25 | 0.00 | 79 | 1017.9 |
| 20260506095003 | 11 | 283 | 3.2 | 3.2 | 0.00 | 0.25 | 0.00 | 80 | 1017.9 |
| 20260506094503 | 11 | 294 | 3.2 | 4.8 | 0.00 | 0.25 | 0.00 | 80 | 1017.9 |
| 20260506094004 | 11 | 325 | 1.6 | 4.8 | 0.00 | 0.25 | 0.00 | 80 | 1017.9 |
| 20260506093504 | 11 | 305 | 3.2 | 4.8 | 0.00 | 0.25 | 0.00 | 80 | 1017.9 |
| 20260506092504 | 11 | 324 | 1.6 | 3.2 | 0.00 | 0.25 | 0.00 | 80 | 1017.9 |
| 20260506092005 | 11 | 314 | 1.6 | 3.2 | 0.00 | 0.25 | 0.00 | 79 | 1017.9 |
| 20260506091004 | 11 | 290 | 1.6 | 1.6 | 0.00 | 0.25 | 0.00 | 78 | 1017.9 |
| 20260506090504 | 11 | 321 | 1.6 | 3.2 | 0.00 | 0.25 | 0.00 | 78 | 1017.9 |
| 20260506090005 | 11 | 20 | 1.6 | 3.2 | 0.00 | 0.25 | 0.00 | 78 | 1017.9 |
| 20260506085005 | 11 | 348 | 1.6 | 3.2 | 0.00 | 0.25 | 0.00 | 78 | 1018.3 |
| 20260506084504 | 11 | 332 | 1.6 | 3.2 | 0.00 | 0.25 | 0.00 | 78 | 1018.3 |
| 20260506084005 | 12 | 330 | 1.6 | 3.2 | 0.00 | 0.25 | 0.00 | 78 | 1018.3 |
| 20260506083005 | 11 | 307 | 1.6 | 3.2 | 0.00 | 0.25 | 0.00 | 77 | 1018.3 |
| 20260506082505 | 11 | 351 | 1.6 | 3.2 | 0.00 | 0.25 | 0.00 | 77 | 1018.3 |
| 20260506082004 | 11 | 7 | 1.6 | 3.2 | 0.00 | 0.25 | 0.00 | 77 | 1018.3 |
| 20260506081504 | 11 | 326 | 1.6 | 3.2 | 0.00 | 0.25 | 0.00 | 77 | 1018.2 |
| 20260506081005 | 12 | 15 | 0.0 | 1.6 | 0.00 | 0.25 | 0.00 | 77 | 1018.3 |
| 20260506080504 | 12 | 20 | 0.0 | 3.2 | 0.00 | 0.25 | 0.00 | 76 | 1018.3 |
| 20260506073505 | 12 | 40 | 1.6 | 3.2 | 0.00 | 0.25 | 0.00 | 74 | 1018.3 |
| 20260506073004 | 12 | 0 | 1.6 | 1.6 | 0.00 | 0.25 | 0.00 | 73 | 1018.3 |
| 20260506072504 | 12 | 40 | 1.6 | 3.2 | 0.00 | 0.25 | 0.00 | 73 | 1018.3 |
| 20260506071504 | 12 | 358 | 1.6 | 3.2 | 0.00 | 0.25 | 0.00 | 73 | 1018.3 |
| 20260506062505 | 13 | 20 | 0.0 | 3.2 | 0.00 | 0.25 | 0.25 | 69 | 1018.0 |
| 20260506061504 | 13 | 306 | 1.6 | 3.2 | 0.00 | 0.25 | 0.25 | 69 | 1017.9 |
| 20260506061004 | 13 | 289 | 1.6 | 3.2 | 0.00 | 0.25 | 0.25 | 69 | 1017.9 |